Location: Bas
(1.1337°N, 10.7804°E)
Time: 16:25:22
(UTC+00:00)

Daily predictions for brighter satellites

Satellite Brightness Start Highest point End
(mag) Time Altitude Azimuth Time Altitude Azimuth Time Altitude Azimuth
Okean-O 3.1 17:40:22 10° SSE 17:44:32 41° ENE 17:48:41 10° N
CZ-2C R/B 4.3 17:44:20 10° E 17:45:58 11° ESE 17:47:35 10° ESE
Cosmos 2292 Rocket 3.7 17:44:16 10° SSE 17:46:50 26° E 17:49:33 10° NNE
USA 215 3.8 17:44:48 10° ENE 17:50:39 36° SE 17:56:30 10° S
Exosat Rocket 4.2 17:47:48 10° N 17:52:19 35° ENE 17:57:22 10° SE
Cosmos 1544 Rocket 3.9 17:57:53 10° N 18:02:19 73° W 18:06:46 10° S
Cosmos 1953 3.0 17:59:01 10° NNE 18:02:41 34° E 18:06:23 10° SSE
H-2A R/B 3.8 18:00:49 10° ESE 18:03:38 15° ENE 18:06:32 10° NE
Cosmos 2322 Rocket 2.2 17:59:50 10° S 18:05:19 56° ESE 18:10:47 10° NNE
BREEZE M DEB (TANK) 2.8 18:03:07 10° S 18:05:40 22° SE 18:07:12 13° E
Cosmos 2297 Rocket 2.3 18:03:39 10° N 18:09:11 58° ENE 18:14:43 10° SSE
Meteor 2-5 Rocket 3.7 18:07:25 10° S 18:13:06 79° E 18:18:52 10° N
CZ-4 R/B 1.3 18:12:30 10° SSE 18:16:37 86° E 18:20:38 10° N
SJ 16-02 2.4 18:13:01 10° NNE 18:16:44 27° ENE 18:18:48 19° ESE
SL-14 R/B 3.5 18:13:44 10° SSE 18:17:26 44° E 18:21:08 10° NNE
Cosmos 1726 2.0 18:16:36 10° N 18:20:14 67° E 18:23:52 10° S
Cosmos 1437 4.1 18:18:00 10° SSW 18:20:50 39° W 18:23:39 10° NNW
Cosmos 2228 4.5 18:19:52 10° NE 18:22:55 19° E 18:23:06 19° E
Cosmos 1417 Rocket 4.4 18:19:57 10° N 18:26:09 70° E 18:32:18 10° S
Milstar 3 Cent rocket 4.3 18:25:30 10° N 18:27:07 11° NNE 18:28:51 10° NE
SL-24 R/B - RUBIN 2 4.3 18:24:05 10° S 18:28:41 40° ESE 18:33:53 10° NE
HJ-1C 4.1 18:28:00 30° ESE 18:28:42 33° E 18:31:43 10° NNE
Cosmos 2266 Rocket 4.4 18:23:49 10° SSW 18:29:46 63° W 18:35:43 10° N
Meteor 2-8 Rocket 4.4 18:25:50 10° N 18:31:53 70° E 18:37:56 10° S
Cosmos 1939 Rocket 4.2 18:28:48 10° S 18:32:42 41° WSW 18:36:33 10° NNW
Ariane H10 3.1 18:30:16 10° WSW 18:33:37 41° S 18:37:37 24° ESE
MOS 1 Rocket 3.5 18:30:46 10° NNE 18:35:53 81° ESE 18:41:16 10° S
Cosmos 1809 Rocket 4.4 18:30:18 10° S 18:36:27 67° E 18:42:33 10° NNE
Meteor 1-24 Rocket 3.9 18:33:07 10° S 18:38:41 78° W 18:44:27 10° N
USA 234 3.3 18:35:52 17° SSE 18:41:10 79° SW 18:47:43 10° NW
Cosmos 1340 Rocket 4.4 18:38:43 10° NNW 18:42:18 34° W 18:45:53 10° SSW
Cosmos 2360 Rocket 2.1 18:37:40 10° S 18:43:13 62° ESE 18:48:44 10° NNE
SJ-11-01 4.4 18:41:42 30° SE 18:43:45 54° ENE 18:48:16 10° N
Mugunghwa Rocket 3.9 18:42:48 10° SW 18:49:09 68° SSE 18:53:10 26° ENE
Cosmos 2082 3.7 18:44:02 10° N 18:49:33 62° ENE 18:51:49 35° SE
GPS 2-17 Rocket1 3.0 18:45:30 10° WNW 18:50:06 81° SSW 18:51:20 49° ESE
Cosmos 1626 3.5 18:48:10 10° SSW 18:51:39 39° W 18:55:07 10° NNW
Cosmos 2227 Rocket 2.7 18:46:42 10° NNW 18:52:13 58° WSW 18:56:57 14° S
H-2A R/B 3.3 18:45:35 10° SW 18:52:52 28° S 18:52:52 28° S
GPS 2-12 Rocket1 3.7 18:51:50 10° SW 18:56:04 39° SSE 18:56:04 39° SSE
Cosmos 1726 Rocket 4.2 18:53:54 10° NNE 18:57:19 39° ENE 18:57:19 39° ENE
Intelsat 5-1 Rocket 3.6 18:55:54 10° NNW 18:58:36 16° N 18:59:01 16° NNE
CZ-2C R/B 3.2 18:56:24 27° SSE 18:59:44 80° ENE 19:05:29 10° N
CZ-2C R/B 3.6 18:56:09 10° NNE 19:00:54 77° ESE 19:03:10 31° S
ARGOS 3.3 19:01:08 49° ESE 19:01:49 52° ENE 19:07:03 10° N
SL-16 R/B 4.4 18:57:14 10° SW 19:01:50 26° WNW 19:06:26 10° NNW
Hubble Space Telescope 3.2 19:02:00 10° WNW 19:05:07 21° NNW 19:08:14 10° NNE
Spelda 3.5 18:52:16 10° W 19:10:31 64° SSW 19:11:37 53° SE
SEDSat Delta rocket 3.5 19:06:05 10° SW 19:11:32 69° SE 19:12:09 64° ESE
USA 186 4.4 19:16:34 16° N 19:16:34 16° N 19:17:18 10° N
ATLAS 5 CENTAUR R/B 4.2 19:13:38 10° WSW 19:16:22 17° WNW 19:19:02 10° NNW
ARIANE 5 DEB (SYLDA) 4.3 19:15:21 10° W 19:19:06 61° S 19:19:21 60° SSE
ARIANE 5 R/B 2.9 19:16:40 10° W 19:20:05 70° SW 19:20:05 70° SW
Cosmos 858 Rocket 4.4 19:16:18 10° N 19:21:11 76° NNE 19:21:11 76° NNE
CZ-2C R/B 3.7 19:21:06 10° N 19:25:59 41° WNW 19:30:51 10° SSW
Cosmos 1626 Rocket 4.3 19:27:04 52° NW 19:27:04 52° NW 19:30:47 10° N
Ariane Rocket 3.2 19:29:27 66° NNW 19:29:27 66° NNW 19:33:47 10° NNW
Cosmos 1898 Rocket 4.3 19:27:50 10° NNW 19:32:46 46° WSW 19:33:28 43° SW
Cosmos 1745 Rocket 4.5 19:35:40 46° NNE 19:35:40 46° NNE 19:39:57 10° N
H-2A R/B 3.4 19:41:26 32° SW 19:42:43 36° WSW 19:47:39 10° NW
Spelda 30 4.4 19:46:30 10° W 20:21:34 - E 19:48:47 49° WNW
BLOCK DM-SL R/B 3.7 19:40:03 10° W 19:50:23 68° W 19:50:23 68° W
SJ 16-02 4.2 19:53:39 10° W 19:55:01 11° WSW 19:55:51 11° WSW
Ariane H10+ 4.4 19:46:57 10° W 19:57:44 85° S 19:58:30 79° ESE
NOSS 3-1 (C) 4.3 20:05:29 10° NNW 20:13:32 75° WNW 20:13:32 75° WNW
CZ-3A R/B 3.6 20:03:42 10° WSW 20:22:27 54° NW 20:22:34 54° NNW
